Location: The Saddle
(36.8333°N, 80.3417°W)
Time: 13:33:46
(UTC-04:00)

Courier 1B - Pass Details

Date: 19 September 2024
Orbit: 962 x 1208 km, 28.3° (Epoch: 06 October)

Event Time Altitude Azimuth Distance (km) Brightness Sun altitude
Rises 14:37:12 0° 247° (WSW) 3,756 11.1 49.5°
Reaches altitude 10° 14:39:59 10° 240° (WSW) 2,839 10.7 49.2°
Maximum altitude 14:46:24 41° 172° (S) 1,531 9.8 48.5°
Drops below altitude 10° 14:53:14 10° 106° (ESE) 3,013 10.0 47.6°
Sets 14:56:16 0° 99° (E) 4,010 10.5 47.2°
